Regional Weather Roundup
Issued by NWS Wakefield, VA

Home | Current Version | Previous Version | Graphics & Text | Print | Product List | Glossary On
Versions: 1 2 3 4 5 6 7 8 9 10 11 12 13 14 15 16 17 18 19 20 21 22 23 24 25 26 27 28 29 30 31 32 33 34 35 36 37 38 39 40 41 42 43 44 45 46 47 48 49 50
916
ASUS41 KAKQ 112315
RWRAKQ

REGIONAL WEATHER ROUNDUP
NATIONAL WEATHER SERVICE WAKEFIELD VA
600 PM EST THU FEB 11 2016

Note: "fair" indicates few or no clouds below 12,000 feet with no
significant weather and/or obstructions to visibility. * = Denotes
station may not report precipitation (e.g., rain,snow,etc.),
thunder or fog.

VAZ042-051-052>054-056-120000-
NORTHERN VIRGINIA

CITY           SKY/WX    TMP DP  RH WIND       PRES   REMARKS
WASH NATIONAL  FAIR      26   0  32 NW16      30.24R WCI  14
DULLES         FAIR      23   0  36 NW22G31   30.21R WCI   8
FORT BELVOIR   FAIR      26   0  32 NW18      30.22R WCI  12
QUANTICO       FAIR      28   0  29 N10       30.25R WCI  19
FREDERICKSBRG* FAIR      28   2  33 N7        30.22R
STAFFORD*      FAIR      26  -3  27 NW13      30.26R WCI  15
WARRENTON      FAIR      26   6  42 NW10      30.22R WCI  15
CULPEPER*      FAIR      25  -2  31 NW9       30.23R
MANASSAS*      CLEAR     25   3  39 NW16      30.23R WCI  12
LEESBURG*      FAIR      25   7  46 NW16G24   30.23R WCI  12
WINCHESTER     FAIR      23   1  39 W14G21    30.21R WCI  11
FRONT ROYAL*   FAIR      23   0  36 W9G16     30.20R
LURAY*         FAIR      21   0  39 NW5       30.20R
$$

VAZ048-049-060>072-079>083-120000-
CENTRAL AND SOUTH CENTRAL VIRGINIA

CITY           SKY/WX    TMP DP  RH WIND       PRES   REMARKS
RICHMOND       FAIR      31   1  28 NW10G23   30.20R WCI  22
CHESTERFIELD*  FAIR      30   0  27 NW10G17   30.21R WCI  21
PETERSBURG*    FAIR      33 -12  13 W7        30.21R
HANOVER        FAIR      30   1  29 W8        30.21R
TAPPAHANNOCK*  FAIR      31  -1  24 NW7       30.20R
QUINTON*       FAIR      31   1  27 W6        30.19R
CHARLOTTSVILLE FAIR      27  -2  28 N7        30.20R
GORDONSVILLE*  FAIR      27   0  30 NW7       30.20R
ORANGE*        FAIR      28   0  29 NW7       30.23R
LOUISA*        FAIR      28   0  29 NW8       30.19R
BUMPASS*       FAIR      29  -1  27 NW3       30.20R
FARMVILLE*     FAIR      31  -3  22 CALM      30.20R
CREWE*         FAIR      31   1  27 W9        30.19R
FORT PICKETT*  NOT AVBL
CHASE CITY*    FAIR      32  -1  24 NW3       30.19R
CLARKSVILLE*   FAIR      32   1  27 NW3       30.19R
SOUTH HILL*    FAIR      32   3  29 W3        30.25R
LAWRENCEVILLE* FAIR      32   0  25 NW5       30.20R
EMPORIA*       FAIR      32   1  27 W3        30.23R
$$

VAZ088>098-120000-
SOUTHEAST VIRGINIA

CITY           SKY/WX    TMP DP  RH WIND       PRES   REMARKS
NORFOLK        FAIR      33   4  29 VRB3      30.19R
VIRGINIA BEACH FAIR      34   5  29 NW5       30.19R
NORFOLK NAVAL  FAIR      32   7  35 NW8       30.21R
WEST POINT*    FAIR      32   0  25 NW10      30.21R WCI  24
SALUDA*        FAIR      30   2  30 W3        30.19R
NEWPORT NEWS   FAIR      32   5  32 NW10      30.19R WCI  24
LANGLEY AFB    FAIR      31   4  31 W8        30.18R
FORT EUSTIS    FAIR      32   6  33 NW10      30.18R WCI  24
WILLIAMSBURG*  FAIR      34   7  32 NW7       30.20R
HR EXEC AP*    FAIR      32   3  29 NW3       30.21R
FRANKLIN*      FAIR      32   3  29 NW6       30.21R
US460-WAKEFLD  FAIR      34  -1  22 NW5       30.20R
$$

VAZ020-022-025-037-045-120000-
WEST CENTRAL AND SOUTHWEST VIRGINIA

CITY           SKY/WX    TMP DP  RH WIND       PRES   REMARKS
STAUNTON*      FAIR      27   1  32 NW14      30.19R WCI  15
WAYNESBORO*    FAIR      23  -4  30 NW5       30.15R
HOT SPRINGS VA FAIR      12   0  57 W13       29.97R WCI  -3
LYNCHBURG      FAIR      27  -1  30 NW6       30.20R
DANVILLE       FAIR      33   2  26 NE5       30.19R
SOUTH BOSTON*  FAIR      32  -1  24 NW6       30.20R
MARTINSVILLE   FAIR      31  -2  23 NW8       30.20R
ROANOKE        FAIR      27   2  34 NW13      30.19R WCI  16
BLACKSBURG     FAIR      25   5  41 NW6G16    30.15R
DUBLIN*        FAIR      27   5  38 W9        30.14R
MARION*        FAIR      27   1  32 NW17      30.12R WCI  14
HILLSVILLE*    FAIR      26   4  39 NW7       30.08R
RICHLANDS*     FAIR      24   1  37 NW6       30.12R
WISE*          FAIR      27   1  33 NW6       30.14S
ABINGDON*      FAIR      32  11  41 NW5       30.15R
$$

MDZ021>025-VAZ099-100-120000-
SOUTHERN MARYLAND AND THE DELMARVA PENINSULA

CITY           SKY/WX    TMP DP  RH WIND       PRES   REMARKS
PATUXENT RIVER PTCLDY    28   2  32 NW17      30.20R WCI  16
BAY BRIDGE APT   N/A     27   3  36 NW20      30.21R WCI  13
LEONARDTOWN    CLEAR     28   0  29 NW9G16    30.21R
DOVER          PTCLDY    24   3  40 W21G32    30.16R WCI  10
GEORGETOWN     PTCLDY    26   1  34 NW17G23   30.18R WCI  13
EASTON         PTCLDY    27   3  36 NW16G29   30.23R WCI  14
CAMBRIDGE      CLEAR     27   3  36 NW10G20   30.19R WCI  17
SALISBURY      CLEAR     26   3  37 NW9G26    30.18R
OCEAN CITY     CLEAR     26   4  38 NW16G26   30.17R WCI  14
WALLOPS ISLAND FAIR      28   4  35 NW10      30.18R WCI  19
ACCOMACK*      FAIR      30   5  34 NW7       30.18R
$$

NCZ012>017-030>032-120000-
NORTH CENTRAL AND EASTERN NORTH CAROLINA

CITY           SKY/WX    TMP DP  RH WIND       PRES   REMARKS
ROANOKE RAPIDS FAIR      34   5  29 NW3       30.21R
RALEIGH        PTCLDY    37   9  31 VRB3      30.20R
ELIZABETH CITY CLEAR     32  10  40 W7        30.21R
AHOSKIE*       CLEAR     34   3  27 CALM      30.22R
EDENTON*       CLEAR     36   9  31 NW5       30.21R
CURRITUCK*     CLEAR     33   9  35 CALM      30.21R
KILL DEVIL HLS CLEAR     33   9  35 W8        30.19R
MANTEO         CLEAR     34  10  37 NW7       30.21R
CAPE HATTERAS  CLEAR     36  13  38 W9        30.20R
TARBORO*       FAIR      36   7  29 NW3       30.22R
GOLDSBORO      CLEAR     39   7  26 NW5       30.19R
WASHINGTON     CLEAR     36   8  31 NW3       30.21R
GREENVILLE     CLEAR     37   9  30 CALM      30.21R
NEW BERN       CLEAR     37  13  37 W5        30.22R
WILMINGTON     CLEAR     42  18  37 NW6       30.21R
$$

VAZ048-120000-
ELSEWHERE

CITY           SKY/WX    TMP DP  RH WIND       PRES   REMARKS
HARRISBURG PA  PTCLDY    22   5  48 NW23G29   30.15R WCI   6
BALTIMORE      PTCLDY    23  -1  35 NW14      30.21R WCI  11
ANNAPOLIS      CLEAR     26   5  40 NW10G20   30.21R WCI  16
ANDREWS AFB    FAIR      24  -1  33 NW18G24   30.19R WCI  11
PHILADELPHIA   PTCLDY    25  -1  32 W20G28    30.14R WCI  11
HENDERSON NC   CLEAR     33  -1  23 CALM      30.19R
GREENSBORO     CLEAR     36  10  34 NW5       30.15R
ROCKY MOUNT    CLEAR     36   7  29 W3        30.21R
$$

VAZ100-120000-
MARINE

STATION/POSITION TIME  TEMP    WIND        PRES    WAVE   SWELL
                       AIR SEA DIR/SP/G            HT/PER HT/PER
                 (UTC) (F)     (DEG/KT/KT) (MB)    (FT/S) (FT/S)
BRANDYWINE LGT   2200   25                 1019.8R
CAPE MAY NJ      2200   26 38              1019.5R
LEWES DE         2200   27 38              1020.1R
15NM E FENWICK I 2250   29 43              1020.6R   6/ 6
OCEAN-CITY-INLET 2200   29 38              1019.7R
WACHAPREAGUE VA  2200   31 40              1021.1R
THOMAS POINT MD  2300   26 38  320/ 15/ 19 1023.6R
GOOSES REEF MD   2300   28 38  310/ 21/ 27 1023.6R   2/ 3
COVE POINT MD    2200   27                 1021.9R
SOLOMONS ISLAND  2200   30 40                N/A
BISHOPS HEAD MD  2200   29 35              1020.3R
PINEY POINT MD   2200          350/ 19/ 21   N/A
POTOMAC MD       2300   30 39  340/ 14/ 17 1021.3R   2/ 3
CAMBRIDGE MD     2200   28 38              1020.5R
LEWISETTA VA     2200   32 39              1021.1R
RAPPAHANNOCK LGT 2200                      1021.2R
STINGRAY PT      2300   33 41  300/ 14/ 19 1022.1R   1/ 2
YORK RVR RNG VA  2200   33                 1020.7R
YORKTOWN VA      2200   34 42              1021.1R
JAMESTOWN VA     2300   34 42  300/ 12/ 16   N/A
DOMINION TERM VA 2200   34                 1021.2R
KIPTOPEKE VA     2200      40                N/A
CHES BAY BRIDGE  2200   33 41              1021.1R
CAPE HENRY VA    2200   32                   N/A
CHESAPEAKE LGHT  2200   32     300/ 17/ 20 1022.2R
WILLOUBY STN VA  2200   33                 1022.3R
CAPE HENRY BUOY  2228      43                N/A     3/ 4
1ST LANDING BUOY 2300      41                N/A     2/ 3
CAPE CHARLES BUO 2226      42                N/A     2/10   2/10
OFFSHORE WE BUOY 2221      45                N/A     4/ 5   2/10
64NM E OF VA BCH 2250   34 48  310/ 19/ 25 1021.5R   6/ 6
DUCK PIER NC     2200   35                 1021.3R
44100 DUCK FRF   2224      46                N/A     3/ 6   2/13
44056 DUCK FRF   2211      44                N/A     2/12
OREGON INLET NC  2200   35 41              1022.0R
HATTERAS NC      2200   38 45              1021.7R
DIAMOND SHLS NC  2250   40 60  300/ 16/ 19 1022.8R   5/ 4   2/ 7
$$




USA.gov is the U.S. government's official web portal to all federal, state and local government web resources and services.